Judi bola online

Jackpot

Texas Poker Multi Jackpot System

Kini Telah hadir Jackpot SUPER ROYAL FLUSH

Kini Telah hadir Jackpot 2000 (khusus table VIP keatas).

Ikutilah global jackpot yang tersedia di system kami, dengan system jackpot terbaru dan pertama di indonesia, anda dapat membeli jackpot dengan harga 100 rupiah saja dan menangkan hadiahnya hingga puluhan juta rupiah.

Jackpot bukanlah suatu keharusan untuk dibeli, namun kami memberikan suatu fitur tambahan untuk member tercinta dari www.funpoker88.net.

Terdapat tiga pilihan harga jackpot yang bisa anda beli yaitu :100,500,1000 dan 2000(khusus table VIP Keatas) rupiah.

Hadiah dari Multi jackpot system www.funpoker88.net

  1. full house x 10 harga jackpot yang anda beli.
      (contoh:anda membeli 1000 maka:1000 X10 = 10.000)
  2. four of kind x 250 harga jackpot yang anda beli
      (contoh:anda membeli 1000 maka:1000 X250 = 250.000)
  3. Straight flush x 1200
      (contoh:anda membeli 1000 maka:1000 X1200 = 1.200.000)
  4. Royal flush x 10000 harga jackpot yang anda beli
      (contoh:anda membeli 1000 maka:1000 X10000 = 10.000.000)
  5. SUPER ROYAL FLUSH x 30000 harga jackpot yang anda beli
      (contoh:anda membeli 1000 maka:1000 X30000 = 30.000.000)

Kondisi kartu

  1. full house adalah kondisi kartu dimana kartu anda dan kartu tengah dengan total 7 kartu bisa mendapatkan nilai 5 kartu dengan kombinasi 1 tris(three of kind) dan 1 pair, contoh 3 kartu 10 dan 2 kartu 5
  2. Four of kind adalah kondisi kartu dimana kartu anda dan kartu tengah dengan total 7 kartu bisa mendapatkan nilai 5 kartu dengan kombinasi 4 kartu yang sama jumlah dan 1 kartu apapun juga contoh anda mendapatkan 4 buah kartu angka 3 dan 1 kartu apapun.
  3. Staright flush adalah kondisi kartu dimana kartu anda dan kartu tengah dengan total 7 kartu bisa mendapatkan nilai 5 kartu dengan kombinasi seri / staright dengan kembang yang sama contoh : urutan kartu dari angka 5, 6, 7, 8 , 9 10 dengan kembang yg sama misalnya as hati
  4. Royal flush adalah kondisi kartu dimana kartu anda dan kartu tengah dengan total 7 kartu bisa mendapatkan nilai 5 kartu dengan kombinasi seri / staright dengan kembang yang sama tetapi kartu tersebut haruslah dimulai dari 10. contoh 10, Queen, Jack, King dan aces dengan kembang yang sama
  5. Super Royal flush adalah kondisi kartu dimana Kedua kartu anda digabung dengan 3 kartu pertama meja haruslah royal flush. contoh kartu anda 10,Queen kembang sama dan 3 kartu pertama meja adalah Jack, King dan aces dengan kembang yang sama

Demikian adalah penjelasan dari Multi Jackpot www.funpoker88.net terima kasih dan selamat bermain salam hoki dari kami

Texas Poker Jackpot Winner

TOP SUPER ROYAL FLUSH
No.TanggalNamaPriceWin
124/05 16:53EBENG99Super Royal flush15,000,000
224/05 14:50IDNGEBOL65Super Royal flush3,000,000
324/05 14:43UNAY17Super Royal flush3,000,000
424/05 14:32OTTELOSuper Royal flush30,000,000
524/05 03:54JABANKSuper Royal flush15,000,000
TOP ROYAL FLUSH
No.TanggalNamaPriceWin
125/05 00:47HOLLOW13Royal flush1,000,000
225/05 00:40PEBRUARIRoyal flush1,000,000
325/05 00:02MINNIE27Royal flush10,000,000
424/05 23:54WORMSRoyal flush5,000,000
524/05 23:50GON0LLRoyal flush5,000,000
TOP STRAIGHT FLUSH
No.TanggalNamaPriceWin
125/05 00:48RD111111Straight Flush1,200,000
225/05 00:47AGUSS55Straight Flush120,000
325/05 00:47SENANG8888Straight Flush120,000
425/05 00:44RAC87Straight Flush600,000
525/05 00:43BEW10Straight Flush120,000
LATEST JACKPOT
No.TanggalNamaPriceWin
125/05 00:50AKUDAPAT99Full House1,000
225/05 00:50ENTJK1PDHXFour Of A Kind125,000
325/05 00:50EDISAUDFour Of A Kind25,000
425/05 00:50TORAO92Full House10,000
525/05 00:50FHDFJHDGJHFull House5,000
625/05 00:50DICKYAFull House10,000
725/05 00:50SUGIHASANFour Of A Kind125,000
825/05 00:50HILUXERFull House1,000
925/05 00:50MANTAPJP88Full House1,000
1025/05 00:50EGI77Full House5,000
1125/05 00:50ISAD2017Full House10,000
1225/05 00:50VALDA88Full House1,000
1325/05 00:50CAA282FDFull House1,000
1425/05 00:50DICKI1Four Of A Kind25,000
1525/05 00:50NIELI1412Full House10,000
1625/05 00:49JWVHHJ42CRFull House5,000
1725/05 00:49GUPRITFour Of A Kind25,000
1825/05 00:49BATORU18Full House5,000
1925/05 00:49B6162WHYFull House10,000
2025/05 00:49KASDUL99Full House10,000
2125/05 00:49SHYPONFull House1,000
2225/05 00:49GAL3MBONGFull House10,000
2325/05 00:49CIMAHI11Four Of A Kind25,000
2425/05 00:49KINGDIEFull House5,000
2525/05 00:49UTQXZRT876Full House1,000
2625/05 00:49RAFI_AHMADFull House10,000
2725/05 00:49CUKIMAI1Full House10,000
2825/05 00:49REIFARELFull House1,000
2925/05 00:49MI4Full House5,000
3025/05 00:49ASUKERE88Full House1,000
3125/05 00:49BOKIR12345Full House5,000
3225/05 00:49DEDE_EMOFull House10,000
3325/05 00:49MERDA007Full House10,000
3425/05 00:49BASO170Full House5,000
3525/05 00:49BERNAT212Four Of A Kind250,000
3625/05 00:49GANNING212Full House5,000
3725/05 00:49LASTEFull House5,000
3825/05 00:49NDDE333Full House10,000
3925/05 00:49HERY755Four Of A Kind125,000
4025/05 00:49YANI82Full House5,000
4125/05 00:49MLM86Full House1,000
4225/05 00:49AJI399Full House5,000
4325/05 00:49LP9Y9S5XCWFull House1,000
4425/05 00:49SAXLAKARFull House10,000
4525/05 00:49HILUXERFull House1,000
4625/05 00:49AGSA09Full House10,000
4725/05 00:49VILLA15Full House5,000
4825/05 00:49TOMATO07Full House1,000
4925/05 00:49HUMHUM01Full House1,000
5025/05 00:49WINNERUP66Full House1,000

Domino Multi Jackpot System

Ikutilah global jackpot yang tersedia di system kami, dengan system jackpot terbaru dan pertama di indonesia, anda dapat membeli jackpot dengan harga 100 rupiah saja dan menangkan hadiahnya hingga puluhan juta rupiah.

Jackpot bukanlah suatu keharusan untuk dibeli, namun kami memberikan suatu fitur tambahan untuk member tercinta dari www.funpoker88.net.

Terdapat tiga pilihan harga jackpot yang bisa anda beli yaitu :100,500 dan 1000 rupiah.

Hadiah dari Multi jackpot system www.funpoker88.net

  1. Murni Kecil x 50 harga jackpot yang anda beli.
      (contoh:anda membeli 1000 maka:1000 X 50 = 50.000)
  2. Murni Besar x 50 harga jackpot yang anda beli
      (contoh:anda membeli 1000 maka:1000 X 50 = 50.000)
  3. BALAK x 100 harga jackpot yang anda beli
      (contoh:anda membeli 1000 maka:1000 X 100 = 100.000)
  4. ENAM DEWA x 6666 harga jackpot yang anda beli
      (contoh:anda membeli 1000 maka:1000 X 6666 = 6.666.000)

Demikian adalah penjelasan dari Multi Jackpot www.funpoker88.net terima kasih dan selamat bermain salam hoki dari kami

Domino Jackpot Winner

TOP ENAM DEWA
No.TanggalNamaPriceWin
124/05 20:38ADITT888murni enam666,600
224/05 20:24FAHMI056murni enam666,600
324/05 18:42CODOEX1murni enam3,333,000
424/05 16:43NOAH5555murni enam666,600
524/05 13:49B14N9murni enam6,666,000
TOP BALAK
No.TanggalNamaPriceWin
125/05 00:43DANIELIWbalak100,000
225/05 00:42PEKHOEL66balak100,000
325/05 00:40ANA1303balak100,000
425/05 00:38NASIRAKBARbalak50,000
525/05 00:33FATUL789balak50,000
LATEST JACKPOT
No.TanggalNamaPriceWin
125/05 00:49XCIMER87murni besar50,000
225/05 00:48DOANENEK21murni kecil5,000
325/05 00:48IGM79murni besar25,000
425/05 00:48PEPSENSYmurni besar5,000
525/05 00:47SUMEK11murni kecil5,000
625/05 00:47RIOOKTAmurni kecil5,000
725/05 00:47HY10murni kecil5,000
825/05 00:47PRANOTOTO8murni besar25,000
925/05 00:47JOHRST02murni kecil25,000
1025/05 00:46COOL_163murni kecil50,000
1125/05 00:45DELTA14murni besar50,000
1225/05 00:45NASIRAKBARmurni besar5,000
1325/05 00:44INA91murni kecil50,000
1425/05 00:43JOGOLLLmurni besar50,000
1525/05 00:43AC69murni besar50,000
1625/05 00:43DANIELIWbalak100,000
1725/05 00:42KAPAKKmurni besar25,000
1825/05 00:42ANDRE1891murni besar50,000
1925/05 00:42D98E7CC0murni kecil25,000
2025/05 00:42TEMPEKTUOmurni kecil25,000
2125/05 00:42PEKHOEL66balak100,000
2225/05 00:42JOHNMADA99murni kecil50,000
2325/05 00:41ARII555murni besar25,000
2425/05 00:40INDRAONE15murni besar50,000
2525/05 00:40LUBIS67murni kecil25,000
2625/05 00:40100482murni kecil50,000
2725/05 00:40ANA1303balak100,000
2825/05 00:39ACHIE1murni besar5,000
2925/05 00:39DOERSBETmurni besar50,000
3025/05 00:39BEBEC98murni besar50,000
3125/05 00:39COROKAKUZmurni besar50,000
3225/05 00:39RIOOKTAmurni besar5,000
3325/05 00:38SUSANA777murni kecil50,000
3425/05 00:38WANWILLYmurni besar50,000
3525/05 00:38NASIRAKBARbalak50,000
3625/05 00:37RENHAR887murni besar25,000
3725/05 00:37KAPUYUAK89murni kecil5,000
3825/05 00:37D05D5CFCmurni kecil5,000
3925/05 00:36DELLA0889murni kecil50,000
4025/05 00:36DOERSBETmurni kecil50,000
4125/05 00:36NIDALmurni besar50,000
4225/05 00:36DONGBASmurni kecil50,000
4325/05 00:36KETENG98murni besar50,000
4425/05 00:35IGM79murni besar25,000
4525/05 00:34CAPIE89murni besar50,000
4625/05 00:34JIWA03murni besar5,000
4725/05 00:33FATUL789balak50,000
4825/05 00:32W3JN3C6OKAmurni kecil50,000
4925/05 00:32NJACUXI88murni besar25,000
5025/05 00:32TITIT808murni kecil50,000

Ceme Multi Jackpot System

Jackpot dilihat dari gabungan kartu pemain dengan kartu bandar. Bandar harus membeli jackpot sebanyak jumlah player yang sedang duduk. Sebagai contoh bila terdapat 3 pemain duduk bermain, dan bandar memutuskan untuk membeli jackpot Rp 1.000, maka pada periode tersebut bandar akan membeli jackpot sebanyak 3xRp1.000 = Rp3.000.

Jackpot bukanlah suatu keharusan untuk dibeli, namun kami memberikan suatu fitur tambahan untuk member tercinta dari www.funpoker88.net.

Terdapat tiga pilihan harga jackpot yang bisa anda beli yaitu :100,500 dan 1000 rupiah.

Hadiah dari Multi jackpot system www.funpoker88.net

  1. Murni Kecil x 50 harga jackpot yang anda beli.
      (contoh:anda membeli 1000 maka:1000 X 50 = 50.000)
  2. Murni Besar x 50 harga jackpot yang anda beli
      (contoh:anda membeli 1000 maka:1000 X 50 = 50.000)
  3. BALAK x 200 harga jackpot yang anda beli
      (contoh:anda membeli 1000 maka:1000 X 200 = 200.000)
  4. ENAM DEWA x 6666 harga jackpot yang anda beli
      (contoh:anda membeli 1000 maka:1000 X 6666 = 6.666.000)

Demikian adalah penjelasan dari Multi Jackpot www.funpoker88.net terima kasih dan selamat bermain salam hoki dari kami

Ceme Jackpot Winner

TOP ENAM DEWA
No.TanggalNamaPriceWin
125/05 00:42B099DC52murni enam3,333,000
225/05 00:38LONG_KEmurni enam3,333,000
325/05 00:09TAEH999murni enam3,333,000
425/05 00:03E35073B0murni enam6,666,000
524/05 23:55KASEPP1murni enam666,600
TOP BALAK
No.TanggalNamaPriceWin
125/05 00:50D99PQWMKSUbalak20,000
225/05 00:50LAROLEWAbalak100,000
325/05 00:49OC3N999balak100,000
425/05 00:49SAKOED027balak100,000
525/05 00:49SANDIPRbalak100,000
LATEST JACKPOT
No.TanggalNamaPriceWin
125/05 00:50JZIPOmurni kecil50,000
225/05 00:50D99PQWMKSUbalak20,000
325/05 00:50LAROLEWAbalak100,000
425/05 00:50QVKC2CN8R3murni besar50,000
525/05 00:49OC3N999balak100,000
625/05 00:49OEAJAHmurni besar50,000
725/05 00:49AGUS01863murni besar25,000
825/05 00:49ZIZOU080murni kecil50,000
925/05 00:49SRNPANGERAN77murni besar25,000
1025/05 00:49KUAHPLIEKmurni besar50,000
1125/05 00:49L13N37A6VGmurni kecil50,000
1225/05 00:49AYU2123murni kecil50,000
1325/05 00:49KROTAK99murni kecil50,000
1425/05 00:49SAKOED027balak100,000
1525/05 00:49SANDIPRbalak100,000
1625/05 00:49PALIL453balak100,000
1725/05 00:49ZEUS13murni kecil50,000
1825/05 00:49AGOEZ04murni kecil50,000
1925/05 00:48TAEH999murni kecil50,000
2025/05 00:48M4RVINZmurni kecil5,000
2125/05 00:48STRES1985balak20,000
2225/05 00:48L13N37A6VGmurni kecil50,000
2325/05 00:48ANTO190murni besar25,000
2425/05 00:48RUDYMOTORmurni besar50,000
2525/05 00:48IRFANSHmurni kecil5,000
2625/05 00:48WONG768murni besar50,000
2725/05 00:48DJMAYmurni besar5,000
2825/05 00:48TORETO893murni besar50,000
2925/05 00:47ZEBRAGANASmurni kecil5,000
3025/05 00:47KIBUL39murni besar50,000
3125/05 00:47WAHYUEKOSAmurni kecil50,000
3225/05 00:47E35073B0murni kecil50,000
3325/05 00:47ABG6666murni kecil5,000
3425/05 00:47RECKY222murni kecil25,000
3525/05 00:47MENANG331murni kecil5,000
3625/05 00:47BULU90murni besar50,000
3725/05 00:47YONANDA88murni kecil5,000
3825/05 00:47COMANKmurni kecil5,000
3925/05 00:46IMAHIMUT_murni besar25,000
4025/05 00:46NANGKA1999murni kecil50,000
4125/05 00:46A25BK251balak100,000
4225/05 00:46XZMBOTbalak20,000
4325/05 00:46H2646SBmurni besar50,000
4425/05 00:46ARAHELmurni besar50,000
4525/05 00:46ALR13murni kecil5,000
4625/05 00:46PINO22murni kecil5,000
4725/05 00:46YAMURRI87murni besar25,000
4825/05 00:46P4G3Q9YDL6murni besar5,000
4925/05 00:46IBP131murni besar5,000
5025/05 00:46BIGLUCKY9murni besar50,000